owner,sensor,date,latitude,longitude,air_temperature,qcFlag 
NDBC,ioos:station:NOAA.NDBC:CDRF1:1,2019-04-01T00:00:00Z,29.1360,-83.0290,20.9,1111122 
NDBC,ioos:station:NOAA.NDBC:CDRF1:1,2019-04-01T01:00:00Z,29.1360,-83.0290,20.5,1111122 
NDBC,ioos:station:NOAA.NDBC:CDRF1:1,2019-04-01T02:00:00Z,29.1360,-83.0290,20.0,1111122 
NDBC,ioos:station:NOAA.NDBC:CDRF1:1,2019-04-01T03:00:00Z,29.1360,-83.0290,19.8,1111122 
NDBC,ioos:station:NOAA.NDBC:CDRF1:1,2019-04-01T04:00:00Z,29.1360,-83.0290,19.8,1111122 
NDBC,ioos:station:NOAA.NDBC:CDRF1:1,2019-04-01T05:00:00Z,29.1360,-83.0290,19.8,1111122 
NDBC,ioos:station:NOAA.NDBC:CDRF1:1,2019-04-01T07:00:00Z,29.1360,-83.0290,16.0,1111122 
NDBC,ioos:station:NOAA.NDBC:CDRF1:1,2019-04-01T08:00:00Z,29.1360,-83.0290,15.1,1111122 
NDBC,ioos:station:NOAA.NDBC:CDRF1:1,2019-04-01T09:00:00Z,29.1360,-83.0290,14.2,1111122 
NDBC,ioos:station:NOAA.NDBC:CDRF1:1,2019-04-01T10:00:00Z,29.1360,-83.0290,13.0,1111122 
NDBC,ioos:station:NOAA.NDBC:CDRF1:1,2019-04-01T12:00:00Z,29.1360,-83.0290,11.5,1111122 
NDBC,ioos:station:NOAA.NDBC:CDRF1:1,2019-04-01T14:00:00Z,29.1360,-83.0290,11.8,1111122 
NDBC,ioos:station:NOAA.NDBC:CDRF1:1,2019-04-01T16:00:00Z,29.1360,-83.0290,12.2,1111122 
NDBC,ioos:station:NOAA.NDBC:CDRF1:1,2019-04-01T17:00:00Z,29.1360,-83.0290,13.4,1111122 
NDBC,ioos:station:NOAA.NDBC:CDRF1:1,2019-04-01T18:00:00Z,29.1360,-83.0290,14.5,1111122 
NDBC,ioos:station:NOAA.NDBC:CDRF1:1,2019-04-01T20:00:00Z,29.1360,-83.0290,14.8,1111122 
NDBC,ioos:station:NOAA.NDBC:CDRF1:1,2019-04-01T21:00:00Z,29.1360,-83.0290,15.3,1111122 
NDBC,ioos:station:NOAA.NDBC:CDRF1:1,2019-04-01T23:00:00Z,29.1360,-83.0290,15.5,1111122 
NDBC,ioos:station:NOAA.NDBC:CDRF1:1,2019-04-02T00:00:00Z,29.1360,-83.0290,15.4,1111122 
NDBC,ioos:station:NOAA.NDBC:CDRF1:1,2019-04-02T01:00:00Z,29.1360,-83.0290,15.5,1111122 
NDBC,ioos:station:NOAA.NDBC:CDRF1:1,2019-04-02T02:00:00Z,29.1360,-83.0290,15.2,1111122 
NDBC,ioos:station:NOAA.NDBC:CDRF1:1,2019-04-02T03:00:00Z,29.1360,-83.0290,14.7,1111122 
NDBC,ioos:station:NOAA.NDBC:CDRF1:1,2019-04-02T04:00:00Z,29.1360,-83.0290,14.9,1111122 
NDBC,ioos:station:NOAA.NDBC:CDRF1:1,2019-04-02T06:00:00Z,29.1360,-83.0290,15.2,1111122 
NDBC,ioos:station:NOAA.NDBC:CDRF1:1,2019-04-02T07:00:00Z,29.1360,-83.0290,15.3,1111122 
NDBC,ioos:station:NOAA.NDBC:CDRF1:1,2019-04-02T09:00:00Z,29.1360,-83.0290,14.5,1111122 
NDBC,ioos:station:NOAA.NDBC:CDRF1:1,2019-04-02T10:00:00Z,29.1360,-83.0290,15.0,1111122 
NDBC,ioos:station:NOAA.NDBC:CDRF1:1,2019-04-02T11:00:00Z,29.1360,-83.0290,14.7,1111122 
NDBC,ioos:station:NOAA.NDBC:CDRF1:1,2019-04-02T12:00:00Z,29.1360,-83.0290,13.6,1111122 
NDBC,ioos:station:NOAA.NDBC:CDRF1:1,2019-04-02T13:00:00Z,29.1360,-83.0290,14.2,1111122 
NDBC,ioos:station:NOAA.NDBC:CDRF1:1,2019-04-02T14:00:00Z,29.1360,-83.0290,15.3,1111122 
NDBC,ioos:station:NOAA.NDBC:CDRF1:1,2019-04-02T16:00:00Z,29.1360,-83.0290,16.6,1111122 
NDBC,ioos:station:NOAA.NDBC:CDRF1:1,2019-04-02T17:00:00Z,29.1360,-83.0290,17.5,1111122 
NDBC,ioos:station:NOAA.NDBC:CDRF1:1,2019-04-02T18:00:00Z,29.1360,-83.0290,17.6,1111122 
NDBC,ioos:station:NOAA.NDBC:CDRF1:1,2019-04-02T20:00:00Z,29.1360,-83.0290,18.0,1111122 
NDBC,ioos:station:NOAA.NDBC:CDRF1:1,2019-04-02T22:00:00Z,29.1360,-83.0290,18.2,1111122 
NDBC,ioos:station:NOAA.NDBC:CDRF1:1,2019-04-02T23:00:00Z,29.1360,-83.0290,18.2,1111122 
NDBC,ioos:station:NOAA.NDBC:CDRF1:1,2019-04-03T00:00:00Z,29.1360,-83.0290,17.5,1111122 
NDBC,ioos:station:NOAA.NDBC:CDRF1:1,2019-04-03T02:00:00Z,29.1360,-83.0290,16.7,1111122 
NDBC,ioos:station:NOAA.NDBC:CDRF1:1,2019-04-03T04:00:00Z,29.1360,-83.0290,16.4,1111122 
NDBC,ioos:station:NOAA.NDBC:CDRF1:1,2019-04-03T05:00:00Z,29.1360,-83.0290,14.8,1111122 
NDBC,ioos:station:NOAA.NDBC:CDRF1:1,2019-04-03T06:00:00Z,29.1360,-83.0290,14.8,1111122 
NDBC,ioos:station:NOAA.NDBC:CDRF1:1,2019-04-03T08:00:00Z,29.1360,-83.0290,14.8,1111122 
NDBC,ioos:station:NOAA.NDBC:CDRF1:1,2019-04-03T10:00:00Z,29.1360,-83.0290,14.6,1111122 
NDBC,ioos:station:NOAA.NDBC:CDRF1:1,2019-04-03T12:00:00Z,29.1360,-83.0290,14.5,1111122 
NDBC,ioos:station:NOAA.NDBC:CDRF1:1,2019-04-03T13:00:00Z,29.1360,-83.0290,15.1,1111122 
NDBC,ioos:station:NOAA.NDBC:CDRF1:1,2019-04-03T14:00:00Z,29.1360,-83.0290,16.0,1111122 
NDBC,ioos:station:NOAA.NDBC:CDRF1:1,2019-04-03T15:00:00Z,29.1360,-83.0290,17.5,1111122 
NDBC,ioos:station:NOAA.NDBC:CDRF1:1,2019-04-03T16:00:00Z,29.1360,-83.0290,18.4,1111122 
NDBC,ioos:station:NOAA.NDBC:CDRF1:1,2019-04-03T18:00:00Z,29.1360,-83.0290,19.7,1111122 
NDBC,ioos:station:NOAA.NDBC:CDRF1:1,2019-04-03T20:00:00Z,29.1360,-83.0290,21.3,1111122 
NDBC,ioos:station:NOAA.NDBC:CDRF1:1,2019-04-03T21:00:00Z,29.1360,-83.0290,21.7,1111122 
NDBC,ioos:station:NOAA.NDBC:CDRF1:1,2019-04-03T22:00:00Z,29.1360,-83.0290,22.4,1111122 
NDBC,ioos:station:NOAA.NDBC:CDRF1:1,2019-04-03T23:00:00Z,29.1360,-83.0290,22.3,1111122 
NDBC,ioos:station:NOAA.NDBC:CDRF1:1,2019-04-04T00:00:00Z,29.1360,-83.0290,21.1,1111122 
NDBC,ioos:station:NOAA.NDBC:CDRF1:1,2019-04-04T02:00:00Z,29.1360,-83.0290,18.8,1111122 
NDBC,ioos:station:NOAA.NDBC:CDRF1:1,2019-04-04T04:00:00Z,29.1360,-83.0290,17.2,1111122 
NDBC,ioos:station:NOAA.NDBC:CDRF1:1,2019-04-04T05:00:00Z,29.1360,-83.0290,16.7,1111122 
NDBC,ioos:station:NOAA.NDBC:CDRF1:1,2019-04-04T06:00:00Z,29.1360,-83.0290,15.9,1111122 
NDBC,ioos:station:NOAA.NDBC:CDRF1:1,2019-04-04T08:00:00Z,29.1360,-83.0290,15.2,1111122 
NDBC,ioos:station:NOAA.NDBC:CDRF1:1,2019-04-04T10:00:00Z,29.1360,-83.0290,15.5,1111122 
NDBC,ioos:station:NOAA.NDBC:CDRF1:1,2019-04-04T11:00:00Z,29.1360,-83.0290,15.5,1111122 
NDBC,ioos:station:NOAA.NDBC:CDRF1:1,2019-04-04T13:00:00Z,29.1360,-83.0290,17.1,1111122 
NDBC,ioos:station:NOAA.NDBC:CDRF1:1,2019-04-04T15:00:00Z,29.1360,-83.0290,19.8,1111122 
NDBC,ioos:station:NOAA.NDBC:CDRF1:1,2019-04-04T17:00:00Z,29.1360,-83.0290,21.2,1111122 
NDBC,ioos:station:NOAA.NDBC:CDRF1:1,2019-04-04T18:00:00Z,29.1360,-83.0290,21.4,1111122 
NDBC,ioos:station:NOAA.NDBC:CDRF1:1,2019-04-04T19:00:00Z,29.1360,-83.0290,22.6,1111122 
NDBC,ioos:station:NOAA.NDBC:CDRF1:1,2019-04-04T21:00:00Z,29.1360,-83.0290,24.0,1111122 
NDBC,ioos:station:NOAA.NDBC:CDRF1:1,2019-04-04T22:00:00Z,29.1360,-83.0290,24.4,1111122 
NDBC,ioos:station:NOAA.NDBC:CDRF1:1,2019-04-04T23:00:00Z,29.1360,-83.0290,24.6,1111122 
NDBC,ioos:station:NOAA.NDBC:CDRF1:1,2019-04-05T00:00:00Z,29.1360,-83.0290,23.4,1111122 
NDBC,ioos:station:NOAA.NDBC:CDRF1:1,2019-04-05T02:00:00Z,29.1360,-83.0290,22.2,1111122 
NDBC,ioos:station:NOAA.NDBC:CDRF1:1,2019-04-05T04:00:00Z,29.1360,-83.0290,21.1,1111122 
NDBC,ioos:station:NOAA.NDBC:CDRF1:1,2019-04-05T06:00:00Z,29.1360,-83.0290,21.1,1111122 
NDBC,ioos:station:NOAA.NDBC:CDRF1:1,2019-04-05T08:00:00Z,29.1360,-83.0290,18.6,1111122 
NDBC,ioos:station:NOAA.NDBC:CDRF1:1,2019-04-05T10:00:00Z,29.1360,-83.0290,19.1,1111122 
NDBC,ioos:station:NOAA.NDBC:CDRF1:1,2019-04-05T11:00:00Z,29.1360,-83.0290,19.4,1111122 
NDBC,ioos:station:NOAA.NDBC:CDRF1:1,2019-04-05T12:00:00Z,29.1360,-83.0290,19.7,1111122 
NDBC,ioos:station:NOAA.NDBC:CDRF1:1,2019-04-05T13:00:00Z,29.1360,-83.0290,20.2,1111122 
NDBC,ioos:station:NOAA.NDBC:CDRF1:1,2019-04-05T14:00:00Z,29.1360,-83.0290,19.9,1111122 
NDBC,ioos:station:NOAA.NDBC:CDRF1:1,2019-04-05T15:00:00Z,29.1360,-83.0290,20.5,1111122 
NDBC,ioos:station:NOAA.NDBC:CDRF1:1,2019-04-05T16:00:00Z,29.1360,-83.0290,21.5,1111122 
NDBC,ioos:station:NOAA.NDBC:CDRF1:1,2019-04-05T18:00:00Z,29.1360,-83.0290,21.2,1111122 
NDBC,ioos:station:NOAA.NDBC:CDRF1:1,2019-04-05T20:00:00Z,29.1360,-83.0290,22.5,1111122 
NDBC,ioos:station:NOAA.NDBC:CDRF1:1,2019-04-05T22:00:00Z,29.1360,-83.0290,22.3,1111122 
NDBC,ioos:station:NOAA.NDBC:CDRF1:1,2019-04-05T23:00:00Z,29.1360,-83.0290,22.1,1111122 
NDBC,ioos:station:NOAA.NDBC:CDRF1:1,2019-04-06T00:00:00Z,29.1360,-83.0290,21.6,1111122 
NDBC,ioos:station:NOAA.NDBC:CDRF1:1,2019-04-06T01:00:00Z,29.1360,-83.0290,21.6,1111122 
NDBC,ioos:station:NOAA.NDBC:CDRF1:1,2019-04-06T02:00:00Z,29.1360,-83.0290,21.4,1111122 
NDBC,ioos:station:NOAA.NDBC:CDRF1:1,2019-04-06T04:00:00Z,29.1360,-83.0290,21.2,1111122 
NDBC,ioos:station:NOAA.NDBC:CDRF1:1,2019-04-06T05:00:00Z,29.1360,-83.0290,21.2,1111122 
NDBC,ioos:station:NOAA.NDBC:CDRF1:1,2019-04-06T06:00:00Z,29.1360,-83.0290,20.9,1111122 
NDBC,ioos:station:NOAA.NDBC:CDRF1:1,2019-04-06T08:00:00Z,29.1360,-83.0290,20.7,1111122 
NDBC,ioos:station:NOAA.NDBC:CDRF1:1,2019-04-06T10:00:00Z,29.1360,-83.0290,20.5,1111122 
NDBC,ioos:station:NOAA.NDBC:CDRF1:1,2019-04-06T11:00:00Z,29.1360,-83.0290,20.3,1111122 
NDBC,ioos:station:NOAA.NDBC:CDRF1:1,2019-04-06T12:00:00Z,29.1360,-83.0290,20.3,1111122 
NDBC,ioos:station:NOAA.NDBC:CDRF1:1,2019-04-06T14:00:00Z,29.1360,-83.0290,20.4,1111122 
NDBC,ioos:station:NOAA.NDBC:CDRF1:1,2019-04-06T15:00:00Z,29.1360,-83.0290,20.5,1111122 
NDBC,ioos:station:NOAA.NDBC:CDRF1:1,2019-04-06T16:00:00Z,29.1360,-83.0290,20.5,1111122 
NDBC,ioos:station:NOAA.NDBC:CDRF1:1,2019-04-06T17:00:00Z,29.1360,-83.0290,20.9,1111122 
NDBC,ioos:station:NOAA.NDBC:CDRF1:1,2019-04-06T18:00:00Z,29.1360,-83.0290,22.4,1111122 
NDBC,ioos:station:NOAA.NDBC:CDRF1:1,2019-04-06T19:00:00Z,29.1360,-83.0290,23.8,1111122 
NDBC,ioos:station:NOAA.NDBC:CDRF1:1,2019-04-06T20:00:00Z,29.1360,-83.0290,24.5,1111122 
NDBC,ioos:station:NOAA.NDBC:CDRF1:1,2019-04-06T22:00:00Z,29.1360,-83.0290,24.6,1111122 
NDBC,ioos:station:NOAA.NDBC:CDRF1:1,2019-04-06T23:00:00Z,29.1360,-83.0290,24.1,1111122 
NDBC,ioos:station:NOAA.NDBC:CDRF1:1,2019-04-07T00:00:00Z,29.1360,-83.0290,23.3,1111122 
NDBC,ioos:station:NOAA.NDBC:CDRF1:1,2019-04-07T01:00:00Z,29.1360,-83.0290,22.8,1111122 
NDBC,ioos:station:NOAA.NDBC:CDRF1:1,2019-04-07T02:00:00Z,29.1360,-83.0290,22.6,1111122 
NDBC,ioos:station:NOAA.NDBC:CDRF1:1,2019-04-07T04:00:00Z,29.1360,-83.0290,23.1,1111122 
NDBC,ioos:station:NOAA.NDBC:CDRF1:1,2019-04-07T06:00:00Z,29.1360,-83.0290,21.8,1111122 
NDBC,ioos:station:NOAA.NDBC:CDRF1:1,2019-04-07T08:00:00Z,29.1360,-83.0290,21.6,1111122 
NDBC,ioos:station:NOAA.NDBC:CDRF1:1,2019-04-07T09:00:00Z,29.1360,-83.0290,21.7,1111122 
NDBC,ioos:station:NOAA.NDBC:CDRF1:1,2019-04-07T10:00:00Z,29.1360,-83.0290,21.8,1111122 
NDBC,ioos:station:NOAA.NDBC:CDRF1:1,2019-04-07T12:00:00Z,29.1360,-83.0290,21.7,1111122 
NDBC,ioos:station:NOAA.NDBC:CDRF1:1,2019-04-07T13:00:00Z,29.1360,-83.0290,21.9,1111122 
NDBC,ioos:station:NOAA.NDBC:CDRF1:1,2019-04-07T14:00:00Z,29.1360,-83.0290,22.1,1111122 
NDBC,ioos:station:NOAA.NDBC:CDRF1:1,2019-04-07T15:00:00Z,29.1360,-83.0290,22.7,1111122 
NDBC,ioos:station:NOAA.NDBC:CDRF1:1,2019-04-07T16:00:00Z,29.1360,-83.0290,23.0,1111122 
NDBC,ioos:station:NOAA.NDBC:CDRF1:1,2019-04-07T17:00:00Z,29.1360,-83.0290,23.5,1111122 
NDBC,ioos:station:NOAA.NDBC:CDRF1:1,2019-04-07T18:00:00Z,29.1360,-83.0290,23.9,1111122 
NDBC,ioos:station:NOAA.NDBC:CDRF1:1,2019-04-07T19:00:00Z,29.1360,-83.0290,23.9,1111122 
NDBC,ioos:station:NOAA.NDBC:CDRF1:1,2019-04-07T20:00:00Z,29.1360,-83.0290,24.7,1111122 
NDBC,ioos:station:NOAA.NDBC:CDRF1:1,2019-04-07T22:00:00Z,29.1360,-83.0290,24.9,1111122 
NDBC,ioos:station:NOAA.NDBC:CDRF1:1,2019-04-08T00:00:00Z,29.1360,-83.0290,24.5,1111122 
NDBC,ioos:station:NOAA.NDBC:CDRF1:1,2019-04-08T02:00:00Z,29.1360,-83.0290,24.0,1111122 
NDBC,ioos:station:NOAA.NDBC:CDRF1:1,2019-04-08T04:00:00Z,29.1360,-83.0290,22.3,1111122 
NDBC,ioos:station:NOAA.NDBC:CDRF1:1,2019-04-08T06:00:00Z,29.1360,-83.0290,22.6,1111122 
NDBC,ioos:station:NOAA.NDBC:CDRF1:1,2019-04-08T07:00:00Z,29.1360,-83.0290,23.4,1111122 
NDBC,ioos:station:NOAA.NDBC:CDRF1:1,2019-04-08T08:00:00Z,29.1360,-83.0290,23.0,1111122 
NDBC,ioos:station:NOAA.NDBC:CDRF1:1,2019-04-08T10:00:00Z,29.1360,-83.0290,22.8,1111122 
NDBC,ioos:station:NOAA.NDBC:CDRF1:1,2019-04-08T12:00:00Z,29.1360,-83.0290,22.3,1111122 
NDBC,ioos:station:NOAA.NDBC:CDRF1:1,2019-04-08T13:00:00Z,29.1360,-83.0290,22.4,1111122 
NDBC,ioos:station:NOAA.NDBC:CDRF1:1,2019-04-08T14:00:00Z,29.1360,-83.0290,22.4,1111122 
NDBC,ioos:station:NOAA.NDBC:CDRF1:1,2019-04-08T15:00:00Z,29.1360,-83.0290,22.9,1111122 
NDBC,ioos:station:NOAA.NDBC:CDRF1:1,2019-04-08T17:00:00Z,29.1360,-83.0290,24.0,1111122 
NDBC,ioos:station:NOAA.NDBC:CDRF1:1,2019-04-08T18:00:00Z,29.1360,-83.0290,24.3,1111122 
NDBC,ioos:station:NOAA.NDBC:CDRF1:1,2019-04-08T19:00:00Z,29.1360,-83.0290,24.7,1111122 
NDBC,ioos:station:NOAA.NDBC:CDRF1:1,2019-04-08T20:00:00Z,29.1360,-83.0290,24.4,1111122 
NDBC,ioos:station:NOAA.NDBC:CDRF1:1,2019-04-08T22:00:00Z,29.1360,-83.0290,21.5,1111122 
NDBC,ioos:station:NOAA.NDBC:CDRF1:1,2019-04-08T23:00:00Z,29.1360,-83.0290,21.6,1111122 
NDBC,ioos:station:NOAA.NDBC:CDRF1:1,2019-04-09T00:00:00Z,29.1360,-83.0290,22.2,1111122 
NDBC,ioos:station:NOAA.NDBC:CDRF1:1,2019-04-09T02:00:00Z,29.1360,-83.0290,23.1,1111122 
NDBC,ioos:station:NOAA.NDBC:CDRF1:1,2019-04-09T03:00:00Z,29.1360,-83.0290,23.1,1111122 
NDBC,ioos:station:NOAA.NDBC:CDRF1:1,2019-04-09T04:00:00Z,29.1360,-83.0290,22.5,1111122 
NDBC,ioos:station:NOAA.NDBC:CDRF1:1,2019-04-09T05:00:00Z,29.1360,-83.0290,22.5,1111122 
NDBC,ioos:station:NOAA.NDBC:CDRF1:1,2019-04-09T06:00:00Z,29.1360,-83.0290,22.6,1111122 
NDBC,ioos:station:NOAA.NDBC:CDRF1:1,2019-04-09T08:00:00Z,29.1360,-83.0290,22.3,1111122 
NDBC,ioos:station:NOAA.NDBC:CDRF1:1,2019-04-09T09:00:00Z,29.1360,-83.0290,23.0,1111122 
NDBC,ioos:station:NOAA.NDBC:CDRF1:1,2019-04-09T10:00:00Z,29.1360,-83.0290,23.1,1111122 
NDBC,ioos:station:NOAA.NDBC:CDRF1:1,2019-04-09T11:00:00Z,29.1360,-83.0290,23.0,1111122 
NDBC,ioos:station:NOAA.NDBC:CDRF1:1,2019-04-09T12:00:00Z,29.1360,-83.0290,22.9,1111122 
NDBC,ioos:station:NOAA.NDBC:CDRF1:1,2019-04-09T13:00:00Z,29.1360,-83.0290,22.6,1111122 
NDBC,ioos:station:NOAA.NDBC:CDRF1:1,2019-04-09T14:00:00Z,29.1360,-83.0290,22.9,1111122 
NDBC,ioos:station:NOAA.NDBC:CDRF1:1,2019-04-09T15:00:00Z,29.1360,-83.0290,23.5,1111122 
NDBC,ioos:station:NOAA.NDBC:CDRF1:1,2019-04-09T16:00:00Z,29.1360,-83.0290,23.2,1111122 
NDBC,ioos:station:NOAA.NDBC:CDRF1:1,2019-04-09T18:00:00Z,29.1360,-83.0290,23.2,1111122 
NDBC,ioos:station:NOAA.NDBC:CDRF1:1,2019-04-09T19:00:00Z,29.1360,-83.0290,22.9,1111122 
NDBC,ioos:station:NOAA.NDBC:CDRF1:1,2019-04-09T20:00:00Z,29.1360,-83.0290,23.2,1111122 
NDBC,ioos:station:NOAA.NDBC:CDRF1:1,2019-04-09T22:00:00Z,29.1360,-83.0290,22.6,1111122 
NDBC,ioos:station:NOAA.NDBC:CDRF1:1,2019-04-09T23:00:00Z,29.1360,-83.0290,22.0,1111122 
NDBC,ioos:station:NOAA.NDBC:CDRF1:1,2019-04-10T01:00:00Z,29.1360,-83.0290,21.6,1111122 
NDBC,ioos:station:NOAA.NDBC:CDRF1:1,2019-04-10T02:00:00Z,29.1360,-83.0290,21.5,1111122 
NDBC,ioos:station:NOAA.NDBC:CDRF1:1,2019-04-10T03:00:00Z,29.1360,-83.0290,21.6,1111122 
NDBC,ioos:station:NOAA.NDBC:CDRF1:1,2019-04-10T04:00:00Z,29.1360,-83.0290,21.3,1111122 
NDBC,ioos:station:NOAA.NDBC:CDRF1:1,2019-04-10T05:00:00Z,29.1360,-83.0290,20.8,1111122 
NDBC,ioos:station:NOAA.NDBC:CDRF1:1,2019-04-10T06:00:00Z,29.1360,-83.0290,20.7,1111122 
NDBC,ioos:station:NOAA.NDBC:CDRF1:1,2019-04-10T07:00:00Z,29.1360,-83.0290,20.5,1111122 
NDBC,ioos:station:NOAA.NDBC:CDRF1:1,2019-04-10T08:00:00Z,29.1360,-83.0290,20.3,1111122 
NDBC,ioos:station:NOAA.NDBC:CDRF1:1,2019-04-10T09:00:00Z,29.1360,-83.0290,20.3,1111122 
NDBC,ioos:station:NOAA.NDBC:CDRF1:1,2019-04-10T10:00:00Z,29.1360,-83.0290,20.3,1111122 
NDBC,ioos:station:NOAA.NDBC:CDRF1:1,2019-04-10T12:00:00Z,29.1360,-83.0290,20.5,1111122 
NDBC,ioos:station:NOAA.NDBC:CDRF1:1,2019-04-10T13:00:00Z,29.1360,-83.0290,21.1,1111122 
NDBC,ioos:station:NOAA.NDBC:CDRF1:1,2019-04-10T15:00:00Z,29.1360,-83.0290,21.7,1111122 
NDBC,ioos:station:NOAA.NDBC:CDRF1:1,2019-04-10T16:00:00Z,29.1360,-83.0290,22.0,1111122 
NDBC,ioos:station:NOAA.NDBC:CDRF1:1,2019-04-10T18:00:00Z,29.1360,-83.0290,22.4,1111122 
NDBC,ioos:station:NOAA.NDBC:CDRF1:1,2019-04-10T20:00:00Z,29.1360,-83.0290,22.6,1111122 
NDBC,ioos:station:NOAA.NDBC:CDRF1:1,2019-04-10T21:00:00Z,29.1360,-83.0290,22.9,1111122 
NDBC,ioos:station:NOAA.NDBC:CDRF1:1,2019-04-10T22:00:00Z,29.1360,-83.0290,22.7,1111122 
NDBC,ioos:station:NOAA.NDBC:CDRF1:1,2019-04-10T23:00:00Z,29.1360,-83.0290,22.3,1111122 
NDBC,ioos:station:NOAA.NDBC:CDRF1:1,2019-04-11T00:00:00Z,29.1360,-83.0290,22.2,1111122 
NDBC,ioos:station:NOAA.NDBC:CDRF1:1,2019-04-11T01:00:00Z,29.1360,-83.0290,22.2,1111122 
NDBC,ioos:station:NOAA.NDBC:CDRF1:1,2019-04-11T02:00:00Z,29.1360,-83.0290,22.2,1111122 
NDBC,ioos:station:NOAA.NDBC:CDRF1:1,2019-04-11T03:00:00Z,29.1360,-83.0290,22.4,1111122 
NDBC,ioos:station:NOAA.NDBC:CDRF1:1,2019-04-11T04:00:00Z,29.1360,-83.0290,21.7,1111122 
NDBC,ioos:station:NOAA.NDBC:CDRF1:1,2019-04-11T05:00:00Z,29.1360,-83.0290,20.9,1111122 
NDBC,ioos:station:NOAA.NDBC:CDRF1:1,2019-04-11T06:00:00Z,29.1360,-83.0290,21.8,1111122 
NDBC,ioos:station:NOAA.NDBC:CDRF1:1,2019-04-11T07:00:00Z,29.1360,-83.0290,21.4,1111122 
NDBC,ioos:station:NOAA.NDBC:CDRF1:1,2019-04-11T08:00:00Z,29.1360,-83.0290,20.2,1111122 
NDBC,ioos:station:NOAA.NDBC:CDRF1:1,2019-04-11T10:00:00Z,29.1360,-83.0290,19.7,1111122 
NDBC,ioos:station:NOAA.NDBC:CDRF1:1,2019-04-11T11:00:00Z,29.1360,-83.0290,19.1,1111122 
NDBC,ioos:station:NOAA.NDBC:CDRF1:1,2019-04-11T12:00:00Z,29.1360,-83.0290,19.2,1111122 
NDBC,ioos:station:NOAA.NDBC:CDRF1:1,2019-04-11T13:00:00Z,29.1360,-83.0290,19.7,1111122 
NDBC,ioos:station:NOAA.NDBC:CDRF1:1,2019-04-11T14:00:00Z,29.1360,-83.0290,20.0,1111122 
NDBC,ioos:station:NOAA.NDBC:CDRF1:1,2019-04-11T16:00:00Z,29.1360,-83.0290,22.1,1111122 
NDBC,ioos:station:NOAA.NDBC:CDRF1:1,2019-04-11T17:00:00Z,29.1360,-83.0290,23.2,1111122 
NDBC,ioos:station:NOAA.NDBC:CDRF1:1,2019-04-11T18:00:00Z,29.1360,-83.0290,24.3,1111122 
NDBC,ioos:station:NOAA.NDBC:CDRF1:1,2019-04-11T19:00:00Z,29.1360,-83.0290,24.8,1111122 
NDBC,ioos:station:NOAA.NDBC:CDRF1:1,2019-04-11T20:00:00Z,29.1360,-83.0290,24.8,1111122 
NDBC,ioos:station:NOAA.NDBC:CDRF1:1,2019-04-11T22:00:00Z,29.1360,-83.0290,25.3,1111122 
NDBC,ioos:station:NOAA.NDBC:CDRF1:1,2019-04-12T00:00:00Z,29.1360,-83.0290,23.4,1111122 
NDBC,ioos:station:NOAA.NDBC:CDRF1:1,2019-04-12T01:00:00Z,29.1360,-83.0290,23.1,1111122 
NDBC,ioos:station:NOAA.NDBC:CDRF1:1,2019-04-12T02:00:00Z,29.1360,-83.0290,23.0,1111122 
NDBC,ioos:station:NOAA.NDBC:CDRF1:1,2019-04-12T03:00:00Z,29.1360,-83.0290,22.9,1111122 
NDBC,ioos:station:NOAA.NDBC:CDRF1:1,2019-04-12T04:00:00Z,29.1360,-83.0290,22.6,1111122 
NDBC,ioos:station:NOAA.NDBC:CDRF1:1,2019-04-12T05:00:00Z,29.1360,-83.0290,22.2,1111122 
NDBC,ioos:station:NOAA.NDBC:CDRF1:1,2019-04-12T06:00:00Z,29.1360,-83.0290,22.0,1111122 
NDBC,ioos:station:NOAA.NDBC:CDRF1:1,2019-04-12T07:00:00Z,29.1360,-83.0290,21.3,1111122 
NDBC,ioos:station:NOAA.NDBC:CDRF1:1,2019-04-12T08:00:00Z,29.1360,-83.0290,21.5,1111122 
NDBC,ioos:station:NOAA.NDBC:CDRF1:1,2019-04-12T10:00:00Z,29.1360,-83.0290,22.7,1111122 
NDBC,ioos:station:NOAA.NDBC:CDRF1:1,2019-04-12T12:00:00Z,29.1360,-83.0290,22.9,1111122 
NDBC,ioos:station:NOAA.NDBC:CDRF1:1,2019-04-12T13:00:00Z,29.1360,-83.0290,22.8,1111122 
NDBC,ioos:station:NOAA.NDBC:CDRF1:1,2019-04-12T14:00:00Z,29.1360,-83.0290,22.8,1111122 
NDBC,ioos:station:NOAA.NDBC:CDRF1:1,2019-04-12T15:00:00Z,29.1360,-83.0290,23.1,1111122 
NDBC,ioos:station:NOAA.NDBC:CDRF1:1,2019-04-12T16:00:00Z,29.1360,-83.0290,23.5,1111122 
NDBC,ioos:station:NOAA.NDBC:CDRF1:1,2019-04-12T17:00:00Z,29.1360,-83.0290,23.9,1111122 
NDBC,ioos:station:NOAA.NDBC:CDRF1:1,2019-04-12T18:00:00Z,29.1360,-83.0290,25.0,1111122 
NDBC,ioos:station:NOAA.NDBC:CDRF1:1,2019-04-12T19:00:00Z,29.1360,-83.0290,24.7,1111122 
NDBC,ioos:station:NOAA.NDBC:CDRF1:1,2019-04-12T20:00:00Z,29.1360,-83.0290,24.9,1111122 
NDBC,ioos:station:NOAA.NDBC:CDRF1:1,2019-04-12T22:00:00Z,29.1360,-83.0290,24.8,1111122 
NDBC,ioos:station:NOAA.NDBC:CDRF1:1,2019-04-13T00:00:00Z,29.1360,-83.0290,24.2,1111122 
NDBC,ioos:station:NOAA.NDBC:CDRF1:1,2019-04-13T01:00:00Z,29.1360,-83.0290,24.1,1111122 
NDBC,ioos:station:NOAA.NDBC:CDRF1:1,2019-04-13T02:00:00Z,29.1360,-83.0290,23.7,1111122 
NDBC,ioos:station:NOAA.NDBC:CDRF1:1,2019-04-13T03:00:00Z,29.1360,-83.0290,24.2,1111122 
NDBC,ioos:station:NOAA.NDBC:CDRF1:1,2019-04-13T04:00:00Z,29.1360,-83.0290,24.3,1111122 
NDBC,ioos:station:NOAA.NDBC:CDRF1:1,2019-04-13T06:00:00Z,29.1360,-83.0290,23.7,1111122 
NDBC,ioos:station:NOAA.NDBC:CDRF1:1,2019-04-13T08:00:00Z,29.1360,-83.0290,23.7,1111122 
NDBC,ioos:station:NOAA.NDBC:CDRF1:1,2019-04-13T09:00:00Z,29.1360,-83.0290,24.2,1111122 
NDBC,ioos:station:NOAA.NDBC:CDRF1:1,2019-04-13T10:00:00Z,29.1360,-83.0290,23.7,1111122 
NDBC,ioos:station:NOAA.NDBC:CDRF1:1,2019-04-13T11:00:00Z,29.1360,-83.0290,23.3,1111122 
NDBC,ioos:station:NOAA.NDBC:CDRF1:1,2019-04-13T12:00:00Z,29.1360,-83.0290,23.1,1111122 
NDBC,ioos:station:NOAA.NDBC:CDRF1:1,2019-04-13T13:00:00Z,29.1360,-83.0290,23.4,1111122 
NDBC,ioos:station:NOAA.NDBC:CDRF1:1,2019-04-13T14:00:00Z,29.1360,-83.0290,23.6,1111122 
NDBC,ioos:station:NOAA.NDBC:CDRF1:1,2019-04-13T15:00:00Z,29.1360,-83.0290,24.4,1111122 
NDBC,ioos:station:NOAA.NDBC:CDRF1:1,2019-04-13T16:00:00Z,29.1360,-83.0290,24.8,1111122 
NDBC,ioos:station:NOAA.NDBC:CDRF1:1,2019-04-13T17:00:00Z,29.1360,-83.0290,25.2,1111122 
NDBC,ioos:station:NOAA.NDBC:CDRF1:1,2019-04-13T18:00:00Z,29.1360,-83.0290,25.4,1111122 
NDBC,ioos:station:NOAA.NDBC:CDRF1:1,2019-04-13T19:00:00Z,29.1360,-83.0290,26.1,1111122 
NDBC,ioos:station:NOAA.NDBC:CDRF1:1,2019-04-13T20:00:00Z,29.1360,-83.0290,27.1,1111122 
NDBC,ioos:station:NOAA.NDBC:CDRF1:1,2019-04-13T22:00:00Z,29.1360,-83.0290,26.1,1111122 
NDBC,ioos:station:NOAA.NDBC:CDRF1:1,2019-04-13T23:00:00Z,29.1360,-83.0290,25.7,1111122 
NDBC,ioos:station:NOAA.NDBC:CDRF1:1,2019-04-14T00:00:00Z,29.1360,-83.0290,25.4,1111122 
NDBC,ioos:station:NOAA.NDBC:CDRF1:1,2019-04-14T02:00:00Z,29.1360,-83.0290,25.8,1111122 
NDBC,ioos:station:NOAA.NDBC:CDRF1:1,2019-04-14T03:00:00Z,29.1360,-83.0290,25.8,1111122 
NDBC,ioos:station:NOAA.NDBC:CDRF1:1,2019-04-14T04:00:00Z,29.1360,-83.0290,25.1,1111122 
NDBC,ioos:station:NOAA.NDBC:CDRF1:1,2019-04-14T05:00:00Z,29.1360,-83.0290,25.3,1111122 
NDBC,ioos:station:NOAA.NDBC:CDRF1:1,2019-04-14T06:00:00Z,29.1360,-83.0290,25.2,1111122 
NDBC,ioos:station:NOAA.NDBC:CDRF1:1,2019-04-14T08:00:00Z,29.1360,-83.0290,25.4,1111122 
NDBC,ioos:station:NOAA.NDBC:CDRF1:1,2019-04-14T09:00:00Z,29.1360,-83.0290,25.1,1111122 
NDBC,ioos:station:NOAA.NDBC:CDRF1:1,2019-04-14T10:00:00Z,29.1360,-83.0290,24.9,1111122 
NDBC,ioos:station:NOAA.NDBC:CDRF1:1,2019-04-14T11:00:00Z,29.1360,-83.0290,24.8,1111122 
NDBC,ioos:station:NOAA.NDBC:CDRF1:1,2019-04-14T12:00:00Z,29.1360,-83.0290,24.6,1111122 
NDBC,ioos:station:NOAA.NDBC:CDRF1:1,2019-04-14T13:00:00Z,29.1360,-83.0290,24.8,1111122 
NDBC,ioos:station:NOAA.NDBC:CDRF1:1,2019-04-14T14:00:00Z,29.1360,-83.0290,25.1,1111122 
NDBC,ioos:station:NOAA.NDBC:CDRF1:1,2019-04-14T15:00:00Z,29.1360,-83.0290,25.2,1111122 
NDBC,ioos:station:NOAA.NDBC:CDRF1:1,2019-04-14T16:00:00Z,29.1360,-83.0290,25.4,1111122 
NDBC,ioos:station:NOAA.NDBC:CDRF1:1,2019-04-14T17:00:00Z,29.1360,-83.0290,25.5,1111122 
NDBC,ioos:station:NOAA.NDBC:CDRF1:1,2019-04-14T18:00:00Z,29.1360,-83.0290,25.4,1111122 
NDBC,ioos:station:NOAA.NDBC:CDRF1:1,2019-04-14T19:00:00Z,29.1360,-83.0290,25.4,1111122 
NDBC,ioos:station:NOAA.NDBC:CDRF1:1,2019-04-14T20:00:00Z,29.1360,-83.0290,25.1,1111122 
NDBC,ioos:station:NOAA.NDBC:CDRF1:1,2019-04-14T21:00:00Z,29.1360,-83.0290,25.0,1111122 
NDBC,ioos:station:NOAA.NDBC:CDRF1:1,2019-04-14T22:00:00Z,29.1360,-83.0290,22.1,1111122 
NDBC,ioos:station:NOAA.NDBC:CDRF1:1,2019-04-14T23:00:00Z,29.1360,-83.0290,21.8,1111122 
NDBC,ioos:station:NOAA.NDBC:CDRF1:1,2019-04-15T00:00:00Z,29.1360,-83.0290,22.4,1111122 
NDBC,ioos:station:NOAA.NDBC:CDRF1:1,2019-04-15T01:00:00Z,29.1360,-83.0290,23.3,1111122 
NDBC,ioos:station:NOAA.NDBC:CDRF1:1,2019-04-15T02:00:00Z,29.1360,-83.0290,22.6,1111122 
NDBC,ioos:station:NOAA.NDBC:CDRF1:1,2019-04-15T03:00:00Z,29.1360,-83.0290,22.3,1111122 
NDBC,ioos:station:NOAA.NDBC:CDRF1:1,2019-04-15T04:00:00Z,29.1360,-83.0290,22.5,1111122 
NDBC,ioos:station:NOAA.NDBC:CDRF1:1,2019-04-15T05:00:00Z,29.1360,-83.0290,21.5,1111122 
NDBC,ioos:station:NOAA.NDBC:CDRF1:1,2019-04-15T06:00:00Z,29.1360,-83.0290,20.3,1111122 
NDBC,ioos:station:NOAA.NDBC:CDRF1:1,2019-04-15T07:00:00Z,29.1360,-83.0290,19.5,1111122 
NDBC,ioos:station:NOAA.NDBC:CDRF1:1,2019-04-15T08:00:00Z,29.1360,-83.0290,19.7,1111122 
NDBC,ioos:station:NOAA.NDBC:CDRF1:1,2019-04-15T09:00:00Z,29.1360,-83.0290,19.2,1111122 